Regional Weather Roundup
Issued by NWS

Home | Current Version | Previous Version | Graphics & Text | Print | Product List | Glossary On
Versions: 1 2 3 4 5 6 7 8 9 10 11 12 13 14 15 16 17 18 19 20 21 22 23 24 25 26 27 28 29 30 31 32 33 34 35 36 37 38 39 40 41 42 43 44 45 46 47 48 49 50
000
ASUS43 KIND 041259
RWRIN

WEATHER ROUNDUP FOR INDIANA
NATIONAL WEATHER SERVICE INDIANAPOLIS IN
900 AM EDT SAT JUL 04 2015

NOTE: "FAIR" INDICATES FEW OR NO CLOUDS BELOW 12,000 FEET WITH NO
SIGNIFICANT WEATHER AND/OR OBSTRUCTIONS TO VISIBILITY.

* - STATION DOES NOT REPORT WEATHER SUCH AS PRECIPITATION OR FOG.

+ - STATION NOT QUALITY CONTROLLED BY THE NATIONAL WEATHER SERVICE.
    USE DATA WITH CAUTION...ESPECIALLY DEWPOINT AND RELATIVE
    HUMIDITY OBSERVATIONS.

INZ001>003-010>013-019-020-041400-
NORTHWEST INDIANA

CITY           SKY/WX    TMP DP  RH WIND       PRES   REMARKS
GARY /AIRPORT/ SUNNY     66  59  77 CALM      30.00R HAZE
MONTICELLO +   SUNNY     63  61  93 CALM      30.00R
RENSSELAER +   SUNNY     63  61  94 CALM      30.01R

$$

LMZ046-743>745-041400-
SOUTHERN LAKE MICHIGAN

STATION/POSITION TIME  TEMP    WIND        PRES    WAVE
                       AIR SEA DIR/SP/G            HT
                 (UTC) (F)     (DEG/KT/KT) (MB)    (FT)
BURNS HARBOR     1200   64     210/  1/  3 1016.3R
MICHIGAN CITY    1200   60     140/  3/  4   N/A
5NW MICH CITY    1200   62 63  170/  4/  4   N/A     0

$$

INZ004-005-014>016-021>024-041400-
NORTH CENTRAL INDIANA

CITY           SKY/WX    TMP DP  RH WIND       PRES   REMARKS
ELKHART        SUNNY     63  57  82 CALM      30.01R
GOSHEN         SUNNY     62  58  86 CALM      30.00R FOG
SOUTH BEND     SUNNY     64  58  80 W3        30.00S

$$

INZ006>009-017-018-025>027-041400-
NORTHEAST INDIANA

CITY           SKY/WX    TMP DP  RH WIND       PRES   REMARKS
ANGOLA *+        N/A     64  55  72 NW5       30.00R
FORT WAYNE     SUNNY     65  60  84 CALM      30.01R

$$

INZ028-029-035-036-043>045-051>053-041400-
WEST CENTRAL INDIANA

CITY           SKY/WX    TMP DP  RH WIND       PRES   REMARKS
CRAWFORDSVL +  SUNNY     63  62  97 CALM      30.01R FOG
GREENCASTLE +  SUNNY     64  59  82 CALM      30.01R HAZE
LAFAYETTE      SUNNY     63  60  90 CALM      30.00R
TERRE HAUTE    SUNNY     69  63  81 CALM      30.00R

$$

INZ030>032-037>040-046>048-054>057-064-065-041400-
CENTRAL INDIANA

CITY           SKY/WX    TMP DP  RH WIND       PRES   REMARKS
COLUMBUS       MOSUNNY   66  63  88 NE3       30.00
GREENWOOD *+   SUNNY     68  59  73 E3        30.01R
INDIANAPOLIS   SUNNY     68  60  75 NE6       29.99R
-EAGLE CREEK   SUNNY     68  61  78 CALM      30.00R
KOKOMO *+      SUNNY     66  61  82 CALM      30.00R
MT COMFORT *+  SUNNY     68 N/A N/A NE3       30.01R
SHELBYVILLE    SUNNY     70  62  76 CALM      29.99R

$$

INZ033-034-041-042-049-050-058-059-041400-
EAST CENTRAL INDIANA

CITY           SKY/WX    TMP DP  RH WIND       PRES   REMARKS
MUNCIE         SUNNY     66  61  84 CALM      30.01R

$$

INZ060-061-067>069-081>083-085>088-041400-
SOUTHWEST INDIANA

CITY           SKY/WX    TMP DP  RH WIND       PRES   REMARKS
EVANSVILLE     SUNNY     71  66  84 E5        29.99R HAZE

$$

INZ062-063-066-070>080-084-089>092-041400-
SOUTH CENTRAL AND SOUTHEAST INDIANA

CITY           SKY/WX    TMP DP  RH WIND       PRES   REMARKS
BLOOMINGTON    CLOUDY    69  64  84 E5        30.00R
MADISON *+     SUNNY     70  63  78 CALM      30.02R
SEYMOUR +      PTSUNNY   68  66  94 CALM      30.00R FOG

$$




USA.gov is the U.S. government's official web portal to all federal, state and local government web resources and services.